SCP
0 0 0 0 0 -0 0 0 0 0 0 0 0 0 0 0 0 0 0 0 0 1 1 1 1 1 1 1 1 1 0 0
0 0 -0 0 0 0 0 0 0 0 0 0 0 0 0 0 0 0 0 0 2 2 2 2 1 1 1 1 1 1 0 0
0 -0 -0 0 0 -0 0 0 0 0 0 0 0 0 0 0 0 0 0 1 2 2 2 1 0 1 1 1 0 0 0 0
0 -0 0 0 0 0 0 0 0 0 0 0 0 0 0 0 0 0 0 0 0 1 1 1 1 1 1 0 0 0 0 0
-0 0 0 0 0 0 0 0 0 0 0 0 0 0 0 0 0 0 0 0 0 0 0 1 1 1 0 0 0 0 0 0
-0 -0 0 0 0 0 0 0 0 0 0 0 0 0 0 0 0 0 0 0 0 0 0 0 0 0 0 0 0 0 0 0
0 -0 -0 -0 -0 0 0 0 0 0 0 0 0 0 0 0 0 0 0 0 0 0 0 0 0 0 0 0 0 0 0 0
0 0 0 -0 -0 0 0 0 0 0 0 0 0 0 0 0 0 0 0 0 0 0 0 0 0 0 0 0 0 0 0 0
0 0 0 0 -0 0 0 0 0 0 0 0 0 0 0 0 0 0 0 0 0 0 0 0 0 0 0 0 0 0 0 0
0 0 0 0 0 0 0 0 0 0 0 0 0 0 0 0 0 0 0 0 0 0 0 0 0 0 0 0 0 0 0 0
0 -0 0 0 0 0 0 0 0 0 0 0 0 0 0 0 0 0 0 0 0 0 0 0 0 0 0 0 0 0 0 0
-0 -0 0 0 0 0 0 0 0 0 0 0 0 0 0 0 0 0 0 0 0 0 0 0 0 0 0 0 0 0 0 0
-0 -0 -0 0 0 0 0 0 0 0 0 0 0 0 0 0 0 0 0 0 0 0 0 0 0 0 0 0 0 0 0 0
-0 -0 0 0 0 0 0 0 0 0 0 0 0 0 0 0 0 0 0 0 0 0 0 0 0 0 0 0 0 0 0 0
0 0 0 -0 0 0 0 0 0 0 0 0 0 0 0 0 0 0 0 0 0 0 0 0 0 0 0 0 0 0 0 0
-0 -0 0 0 0 0 0 0 0 0 0 0 0 0 0 0 0 0 0 0 0 0 0 0 0 0 0 0 0 0 0 0
0 -0 0 0 -0 0 0 0 0 0 0 0 0 0 0 0 0 0 0 0 0 0 0 0 0 0 0 0 0 0 0 0
0 0 0 0 0 0 0 0 0 0 0 0 0 0 0 0 0 0 0 0 0 0 0 0 0 0 0 0 0 0 0 0
-0 -0 0 0 0 0 0 0 0 0 0 0 0 0 0 0 0 0 0 0 0 0 0 0 0 0 0 0 0 0 0 0
0 -0 -0 0 -0 0 0 0 -0 0 0 0 0 0 0 0 0 0 0 0 0 0 0 0 0 0 0 0 0 0 0 0
Wind_Speed_500mb
7 7 12 9 9 40 24 12 14 8 20 19 26 41 48 32 24 17 13 20 26 19 18 24 31 34 33 30 29 34 35 37
2 20 24 7 16 20 4 24 23 21 14 19 23 33 28 24 7 11 11 11 20 15 14 24 34 36 36 33 36 41 40 40
11 26 32 5 25 29 8 22 13 21 12 24 30 34 32 20 23 23 19 14 17 21 31 34 35 35 32 34 39 43 44 45
13 29 18 9 18 33 19 26 14 20 21 22 33 30 25 15 17 28 28 27 27 31 29 33 29 30 34 30 31 34 40 46
23 32 28 8 34 2 32 15 11 12 8 33 33 29 25 26 30 34 22 21 19 26 24 20 18 23 26 32 37 39 37 38
25 24 35 8 23 21 29 7 9 9 10 16 42 39 27 29 21 10 16 18 18 12 13 21 25 30 37 34 35 38 37 36
31 31 33 44 12 27 29 8 17 18 29 37 55 40 24 22 21 18 21 20 22 18 21 27 35 38 27 28 33 37 43 45
30 36 31 34 29 36 24 35 23 10 35 38 38 32 24 28 23 27 32 35 23 21 33 41 40 25 23 25 35 43 45 42
46 60 62 44 31 51 31 8 15 33 42 39 39 28 24 28 32 30 37 29 30 32 39 43 39 26 25 24 30 37 45 44
62 63 54 15 32 33 43 23 16 22 27 36 35 37 36 30 19 29 24 22 25 34 37 37 31 29 25 23 35 40 47 34
69 64 58 26 27 41 52 24 16 13 17 26 29 34 35 32 33 28 28 23 28 33 33 31 31 26 25 26 29 36 30 27
60 55 38 23 37 52 46 38 25 24 16 23 26 29 40 42 34 29 26 23 29 28 26 27 29 27 31 31 33 32 31 27
42 37 32 49 35 31 45 35 31 34 35 39 35 39 50 47 43 44 35 30 25 18 17 20 26 30 32 37 38 36 29 28
19 24 52 33 40 29 51 33 32 37 47 39 50 55 47 48 50 47 36 24 22 21 18 20 25 23 27 30 32 31 27 26
32 38 43 23 38 34 47 30 33 47 50 55 55 54 52 55 51 43 30 21 23 20 15 19 19 17 24 26 27 28 27 22
36 46 37 28 27 16 40 44 47 55 46 55 47 60 64 54 45 36 23 19 18 14 14 18 15 22 25 24 19 22 30 24
44 38 35 12 40 18 30 27 21 36 42 39 36 67 60 49 42 32 21 17 12 8 17 16 17 24 19 21 24 26 28 28
46 38 9 29 40 25 16 14 31 43 55 46 48 70 56 48 41 32 21 14 10 11 12 13 12 15 19 28 27 27 23 26
38 41 32 11 10 10 10 17 40 57 66 37 59 74 63 55 45 35 22 15 13 11 14 6 11 17 22 23 23 23 15 22
42 33 16 2 12 7 12 20 20 44 45 54 70 68 65 58 50 35 22 17 16 17 5 4 13 18 24 35 33 20 8 19
Wind_Direction_500mb
192 215 218 245 272 328 353 128 138 159 128 109 134 128 151 169 166 212 263 282 268 263 269 291 297 298 296 287 278 278 281 285
232 257 263 250 266 281 337 317 181 135 111 92 155 149 155 158 189 171 223 249 232 247 271 291 297 298 295 280 271 270 275 280
269 266 268 338 265 248 345 316 125 149 115 111 140 151 163 168 165 190 213 214 245 269 288 301 303 299 296 289 280 275 275 275
277 287 311 230 42 347 323 319 78 61 109 140 153 171 164 168 168 185 209 227 255 269 287 300 300 305 309 305 297 293 289 282
279 291 311 314 26 188 279 252 89 105 107 139 165 172 169 179 183 193 225 264 272 262 296 297 285 298 299 301 302 304 299 288
278 286 287 309 191 218 237 128 156 178 147 176 179 180 179 198 207 254 270 242 246 281 258 258 276 293 297 304 303 308 305 308
267 277 280 316 340 339 331 296 245 239 177 169 174 190 193 177 213 242 231 204 202 207 247 267 290 304 294 294 303 299 297 310
259 268 279 305 321 324 333 309 263 134 142 158 184 197 189 184 199 223 180 176 210 248 278 291 304 292 281 300 293 290 295 304
258 262 275 287 325 316 305 312 344 167 161 184 204 194 184 208 226 206 192 214 246 268 291 308 319 309 276 260 284 279 288 296
256 262 264 249 298 292 283 277 309 140 176 197 198 193 200 205 202 204 211 224 255 290 301 309 319 319 306 269 268 280 289 285
260 267 261 272 267 266 269 266 285 153 177 193 213 210 213 213 208 208 215 238 268 292 304 322 322 331 329 313 299 292 289 279
261 268 265 263 265 263 259 258 215 220 206 207 225 224 206 193 205 219 231 249 277 290 317 320 328 322 323 323 319 311 290 273
271 272 268 263 259 256 270 234 225 208 226 231 223 213 215 212 226 227 235 260 278 304 309 307 311 310 315 317 321 315 299 279
260 271 268 252 258 245 244 241 258 227 246 219 219 224 216 210 212 218 223 252 266 286 275 281 300 310 323 319 328 331 319 290
267 249 261 243 253 251 215 235 259 232 246 227 236 219 214 196 203 211 210 232 249 281 290 290 314 321 321 325 331 338 339 314
256 256 256 261 304 192 211 220 237 256 236 234 227 202 183 186 196 206 214 232 247 274 290 300 312 329 316 329 323 347 356 344
255 253 246 337 270 257 220 216 228 251 271 270 241 178 174 183 191 201 212 224 254 274 294 313 317 330 331 332 314 326 348 343
272 277 174 219 253 247 203 215 244 259 266 265 162 158 170 183 190 201 207 209 221 261 273 308 337 342 341 330 315 311 324 342
259 278 285 264 305 303 259 246 270 267 253 173 170 165 173 181 188 195 198 195 219 218 267 355 341 336 344 349 336 328 310 336
251 261 262 276 288 293 309 300 297 285 152 159 167 172 177 181 185 189 188 195 188 228 228 308 355 350 0 349 337 346 340 344
Wind_Speed_850mb
7 7 12 9 9 40 24 12 14 8 20 19 26 41 48 32 24 17 13 20 26 19 18 24 31 34 33 30 29 34 35 37
2 20 24 7 16 20 4 24 23 21 14 19 23 33 28 24 7 11 11 11 20 15 14 24 34 36 36 33 36 41 40 40
11 26 32 5 25 29 8 22 13 21 12 24 30 34 32 20 23 23 19 14 17 21 31 34 35 35 32 34 39 43 44 45
13 29 18 9 18 33 19 26 14 20 21 22 33 30 25 15 17 28 28 27 27 31 29 33 29 30 34 30 31 34 40 46
23 32 28 8 34 2 32 15 11 12 8 33 33 29 25 26 30 34 22 21 19 26 24 20 18 23 26 32 37 39 37 38
25 24 35 8 23 21 29 7 9 9 10 16 42 39 27 29 21 10 16 18 18 12 13 21 25 30 37 34 35 38 37 36
31 31 33 44 12 27 29 8 17 18 29 37 55 40 24 22 21 18 21 20 22 18 21 27 35 38 27 28 33 37 43 45
30 36 31 34 29 36 24 35 23 10 35 38 38 32 24 28 23 27 32 35 23 21 33 41 40 25 23 25 35 43 45 42
46 60 62 44 31 51 31 8 15 33 42 39 39 28 24 28 32 30 37 29 30 32 39 43 39 26 25 24 30 37 45 44
62 63 54 15 32 33 43 23 16 22 27 36 35 37 36 30 19 29 24 22 25 34 37 37 31 29 25 23 35 40 47 34
69 64 58 26 27 41 52 24 16 13 17 26 29 34 35 32 33 28 28 23 28 33 33 31 31 26 25 26 29 36 30 27
60 55 38 23 37 52 46 38 25 24 16 23 26 29 40 42 34 29 26 23 29 28 26 27 29 27 31 31 33 32 31 27
42 37 32 49 35 31 45 35 31 34 35 39 35 39 50 47 43 44 35 30 25 18 17 20 26 30 32 37 38 36 29 28
19 24 52 33 40 29 51 33 32 37 47 39 50 55 47 48 50 47 36 24 22 21 18 20 25 23 27 30 32 31 27 26
32 38 43 23 38 34 47 30 33 47 50 55 55 54 52 55 51 43 30 21 23 20 15 19 19 17 24 26 27 28 27 22
36 46 37 28 27 16 40 44 47 55 46 55 47 60 64 54 45 36 23 19 18 14 14 18 15 22 25 24 19 22 30 24
44 38 35 12 40 18 30 27 21 36 42 39 36 67 60 49 42 32 21 17 12 8 17 16 17 24 19 21 24 26 28 28
46 38 9 29 40 25 16 14 31 43 55 46 48 70 56 48 41 32 21 14 10 11 12 13 12 15 19 28 27 27 23 26
38 41 32 11 10 10 10 17 40 57 66 37 59 74 63 55 45 35 22 15 13 11 14 6 11 17 22 23 23 23 15 22
42 33 16 2 12 7 12 20 20 44 45 54 70 68 65 58 50 35 22 17 16 17 5 4 13 18 24 35 33 20 8 19
Wind_Direction_850mb
192 215 218 245 272 328 353 128 138 159 128 109 134 128 151 169 166 212 263 282 268 263 269 291 297 298 296 287 278 278 281 285
232 257 263 250 266 281 337 317 181 135 111 92 155 149 155 158 189 171 223 249 232 247 271 291 297 298 295 280 271 270 275 280
269 266 268 338 265 248 345 316 125 149 115 111 140 151 163 168 165 190 213 214 245 269 288 301 303 299 296 289 280 275 275 275
277 287 311 230 42 347 323 319 78 61 109 140 153 171 164 168 168 185 209 227 255 269 287 300 300 305 309 305 297 293 289 282
279 291 311 314 26 188 279 252 89 105 107 139 165 172 169 179 183 193 225 264 272 262 296 297 285 298 299 301 302 304 299 288
278 286 287 309 191 218 237 128 156 178 147 176 179 180 179 198 207 254 270 242 246 281 258 258 276 293 297 304 303 308 305 308
267 277 280 316 340 339 331 296 245 239 177 169 174 190 193 177 213 242 231 204 202 207 247 267 290 304 294 294 303 299 297 310
259 268 279 305 321 324 333 309 263 134 142 158 184 197 189 184 199 223 180 176 210 248 278 291 304 292 281 300 293 290 295 304
258 262 275 287 325 316 305 312 344 167 161 184 204 194 184 208 226 206 192 214 246 268 291 308 319 309 276 260 284 279 288 296
256 262 264 249 298 292 283 277 309 140 176 197 198 193 200 205 202 204 211 224 255 290 301 309 319 319 306 269 268 280 289 285
260 267 261 272 267 266 269 266 285 153 177 193 213 210 213 213 208 208 215 238 268 292 304 322 322 331 329 313 299 292 289 279
261 268 265 263 265 263 259 258 215 220 206 207 225 224 206 193 205 219 231 249 277 290 317 320 328 322 323 323 319 311 290 273
271 272 268 263 259 256 270 234 225 208 226 231 223 213 215 212 226 227 235 260 278 304 309 307 311 310 315 317 321 315 299 279
260 271 268 252 258 245 244 241 258 227 246 219 219 224 216 210 212 218 223 252 266 286 275 281 300 310 323 319 328 331 319 290
267 249 261 243 253 251 215 235 259 232 246 227 236 219 214 196 203 211 210 232 249 281 290 290 314 321 321 325 331 338 339 314
256 256 256 261 304 192 211 220 237 256 236 234 227 202 183 186 196 206 214 232 247 274 290 300 312 329 316 329 323 347 356 344
255 253 246 337 270 257 220 216 228 251 271 270 241 178 174 183 191 201 212 224 254 274 294 313 317 330 331 332 314 326 348 343
272 277 174 219 253 247 203 215 244 259 266 265 162 158 170 183 190 201 207 209 221 261 273 308 337 342 341 330 315 311 324 342
259 278 285 264 305 303 259 246 270 267 253 173 170 165 173 181 188 195 198 195 219 218 267 355 341 336 344 349 336 328 310 336
251 261 262 276 288 293 309 300 297 285 152 159 167 172 177 181 185 189 188 195 188 228 228 308 355 350 0 349 337 346 340 344